Showing default

TELSTAR 2 (A-41), 573

Orbit data source: Space-Track

TELSTAR 2 (A-41), 573 is a payload satellite owned by AT&T (US) in HEO that was launched on Tue, 07 May 1963 UTC via a THOR DELTA B launch vehicle from the Air Force Eastern Test Range (AFETR). Payloads include a variety of satellites, spacecraft, and rockets equipped with specific instruments for various scientific and technological missions. These include communications satellites like Starlink; space stations such as the ISS; scientific satellites like the Hubble; Earth observation satellites from companies like Planet Labs, Umbra, and HawkEye 360; GPS; miniature CubeSats for education and research; and military/defense satellites.

Loading next visibility...
TELSTAR 2 (A-41) details
Identifier
573, 1963-013A
Orbit
HEO
Last TLE update1 day ago
Origin
Flag of USAT&T (US)
ManufacturerAT&T/BTL
MissionCommercial Communications
Bus & MotorTSX, Unknown motor
Mass79 kg wet, 79 kg dry
Launch date (UTC)
1963-05-07 (62 years ago)
Launch vehicle
THOR DELTA B
Launch site
Air Force Eastern Test Range (AFETR)
Object type
Payload
Rocket body
Debris
Shape & HBRSphere + 1 Ant, 1.5 m
Radar Cross Section0.677 m², Medium (>0.1 m² and < 1m²)

Expand to show TLE details & history

TLE from 1 day ago
0 TELSTAR 2 (A-41)
1 00573U 63013A   25014.84091311  .00000026  00000-0  29710-3 0  9997
2 00573  42.7524 171.7190 4014790 239.8431 314.6389  6.39264566552993
Epoch: 2025-01-14T20:10Z
Definitive object data (Epoch: 2025-01-14T20:10:54.892Z)
Latitude20.02915°
Longitude-88.69777°
Altitude3,916.922 km
Speed6.705 km/s
True Right ascension21h 54m 17s
True Declination19° 57' 10"
Sunlit
Object was in daylight at TLE epoch
Visualization TLE readout
Latitude10.54961°
Longitude-78.29698°
Altitude3,047.971 km
Speed7.217 km/s
Apparent Right ascension21h 52m 50s
Apparent Declination-27° 29' 21"
Sunlit
Object is in daylight
Visualization observer readout
Local Sidereal Time23:15:35
Azimuth199.469° SSW
Elevation19.897°
Doppler factor1
Orbital elements
Apogee altitude10,810.947 km
Perigee altitude962.699 km
Semi-major axis12,264.96 km
Eccentricity0.401479
Inclination42.7524°
RAAN171.719°
Arg. of periapsis239.8431°
True anomaly269.87056°
Mean anomaly314.6389°
Eccentric anomaly293.55206°
Mean motion1.59788 °/min
BSTAR0.0002971
Orbital period225.3 mins
Loading maneuver chart data...
Loading historical data...
Loading historical data...
Loading historical data...
Loading historical data...
Loading historical data...
Loading historical data...
Loading historical data...
Other satellites on launch #13 in the year 1963 (1963-05-07 UTC)

TELSTAR 2 (A-41) Visibility forecast

Observer location: undefined°, undefined

Span
Click to sort rows by Start time (UTC) header in descending order
Start Az.
Max El. time (UTC)
Max El. Az.
Max El.
End time (UTC)
End Az.
123 mins2025-01-16 10:51:34.138Z193.523° SSW2025-01-16 11:40:34.138Z122.03° SE40.621°2025-01-16 12:54:34.138Z62.947° ENE
130 mins2025-01-16 14:58:34.138Z254.212° W2025-01-16 16:22:34.138Z354.384° N44.905°2025-01-16 17:08:34.138Z93.325° ESE
85 mins2025-01-16 19:41:34.138Z295.806° NW2025-01-16 20:47:34.138Z233.956° WSW41.011°2025-01-16 21:06:34.138Z155.968° SSE
|